Presure
172 193 162 178 180 174 158 170 175 183 189 194 195 174 173 173 179 178 159 181 176 197 180 168 181 198 191 192 178 174 178 178 179 181 188 194 188 182 188 186 182 182 149 155 189 191 184 185 178 90 188 82 165 193
169 171 164 172 202 177 169 178 186 159 194 174 185 182 182 190 173 174 178 184 173 175 168 170 177 181 185 168 151 152 169 171 173 169 175 178 173 189 168 164 163 165 179 178 192 151 190 197 197 202 205 206 125 206
188 146 194 174 172 166 173 182 133 141 179 180 184 184 178 192 201 185 196 167 169 164 178 181 180 171 173 168 172 160 193 205 193 187 176 183 176 163 90 180 183 182 178 103 184 108 107 176 193 145 206 107 214 219
182 170 164 177 170 165 190 174 179 187 187 174 180 187 179 192 158 165 164 167 167 184 175 182 185 176 193 136 208 186 184 190 188 186 187 194 82 188 196 193 122 163 87 219 222 151 163 198 204 173 212 214 221 222
171 188 190 206 177 189 190 178 186 203 166 173 210 176 192 183 181 201 182 181 202 175 179 179 177 195 180 180 209 205 181 183 180 101 169 195 172 200 215 199 207 217 211 208 225 225 239 221 219 210 223 202 226 222
212 191 218 192 203 200 200 163 209 171 201 226 190 196 207 191 191 208 205 224 197 209 217 222 181 189 197 198 197 223 219 199 212 205 183 189 188 185 190 205 192 202 240 232 226 221 222 200 240 214 129 222 217 237
212 207 205 227 195 203 208 207 209 219 222 218 204 194 200 230 224 218 183 186 202 200 196 213 177 189 192 188 189 185 187 190 181 190 125 78 209 216 196 203 215 211 206 96 211 202 228 246 130 226 235 248 260 262
190 212 200 202 198 201 193 218 201 221 196 210 213 186 184 205 178 185 192 202 213 202 191 199 218 179 191 188 212 197 179 177 128 211 220 209 217 211 195 208 214 212 245 236 229 229 225 231 243 257 276 285 291 194
137 143 188 190 191 196 223 173 181 186 180 176 184 182 205 203 192 195 189 201 209 218 181 188 178 175 232 206 195 190 199 195 204 208 222 227 205 147 232 235 230 227 257 254 252 258 260 255 289 299 306 322 371 393
204 223 218 186 196 197 175 198 185 199 211 194 201 174 177 182 226 225 203 228 182 212 222 68 241 190 233 219 199 226 236 202 199 249 243 241 87 214 241 66 258 266 193 274 277 261 391 388 387 393 401 406 409 407
196 207 206 201 222 179 205 228 230 201 219 197 216 192 203 224 221 223 229 204 204 240 239 243 235 248 217 209 219 247 249 245 247 238 256 266 207 265 276 241 235 347 358 427 427 415 413 420 425 431 390 303 361 415
221 224 221 214 223 216 221 223 225 223 226 210 224 226 228 224 223 229 236 245 90 251 248 259 250 238 247 395 223 377 401 446 421 461 486 318 248 422 373 442 377 413 371 362 356 344 338 325 316 322 417 386 323 321
209 213 219 215 222 232 216 232 218 235 247 258 247 242 235 241 354 360 372 360 259 273 362 341 320 296 408 479 494 468 472 461 465 455 403 381 435 441 437 436 437 423 413 407 361 405 383 359 345 327 337 346 428 423
221 237 233 232 224 257 274 357 302 238 353 341 344 250 256 343 337 332 331 331 326 261 270 305 319 303 316 314 311 307 305 301 302 278 297 297 297 294 293 394 389 392 384 377 372 370 371 372 372 433 421 404 404 352
230 284 323 315 323 323 341 330 269 233 261 249 319 281 315 308 306 299 297 297 300 287 291 334 327 308 313 310 321 314 310 306 300 305 351 357 323 317 310 306 299 316 359 357 358 357 355 353 374 347 390 392 405 429
285 341 358 352 308 322 331 295 289 292 305 286 302 306 295 289 285 293 291 322 323 321 324 327 323 166 315 314 308 410 412 370 359 300 360 398 400 422 439 438 298 287 416 407 403 399 392 388 386 380 380 393 406 404
285 363 279 288 334 328 313 307 299 300 295 297 292 293 295 292 308 306 306 306 306 300 296 294 307 321 346 397 382 382 403 437 427 417 432 417 406 398 393 410 404 388 387 410 398 389 395 387 376 378 389 405 391 386
327 362 349 339 327 316 305 298 298 293 285 282 285 284 286 298 289 292 289 289 286 292 290 290 295 292 299 393 382 358 358 360 366 424 397 391 390 397 386 403 299 307 397 390 392 380 378 371 374 385 396 383 379 367
369 354 338 325 310 300 295 283 291 296 284 292 283 284 294 282 276 277 278 296 310 306 291 287 289 297 288 316 357 364 358 350 346 378 392 382 399 384 378 378 386 380 361 387 393 382 370 378 375 373 370 373 361 359
356 343 326 305 290 282 323 294 293 289 294 282 283 294 285 272 267 270 278 283 284 293 294 294 288 295 290 282 286 316 329 343 350 357 354 345 341 366 357 356 358 367 288 277 366 370 364 364 364 365 367 363 359 354
337 327 305 284 281 263 291 283 273 297 296 287 290 283 269 263 263 264 263 268 271 276 284 287 292 293 288 284 275 298 310 304 311 324 340 344 340 338 348 326 317 311 299 295 294 351 347 353 351 357 356 357 355 357
307 287 281 284 319 293 266 283 320 299 295 294 276 262 261 256 252 255 260 258 261 269 276 284 289 289 285 284 275 273 302 306 304 296 304 316 321 327 332 334 333 330 325 315 294 276 357 350 348 351 356 356 349 347
274 291 300 285 294 336 327 314 296 295 291 271 260 257 257 250 249 251 251 253 261 268 281 288 286 279 276 293 296 309 313 311 313 316 302 289 306 311 314 317 316 314 328 346 341 313 274 325 359 351 349 348 344 341
287 294 319 361 308 296 292 285 279 276 264 261 260 253 248 244 247 251 257 264 270 275 276 274 274 279 287 298 314 318 320 316 315 320 324 327 305 297 302 312 311 306 309 309 306 317 347 291 276 344 357 343 340 335
342 351 304 296 292 287 275 263 255 258 257 254 251 249 249 248 257 262 269 273 277 276 277 282 287 296 309 327 334 331 324 321 321 321 321 326 334 321 310 302 299 314 312 303 307 315 313 312 345 269 319 368 342 336
298 291 283 279 273 259 259 258 258 260 257 252 249 253 258 264 268 273 269 271 274 281 294 305 320 338 347 346 345 340 338 333 328 326 326 326 332 340 330 319 313 306 297 302 305 301 306 310 305 316 276 292 362 351
284 275 269 261 257 257 256 253 250 249 252 257 262 264 269 273 274 281 291 303 314 329 344 352 357 361 360 358 352 347 340 335 332 333 335 338 345 350 344 335 327 325 318 308 299 301 306 313 317 316 312 277 281 332
267 259 258 259 254 255 256 260 262 264 265 270 273 277 283 297 306 317 335 355 366 375 380 385 389 387 382 374 368 362 361 356 355 358 366 364 356 337 344 343 343 337 333 330 326 322 312 313 314 316 307 308 304 279
259 260 256 255 256 258 260 262 267 271 281 286 295 307 318 344 372 385 393 403 411 414 415 417 418 419 419 418 412 406 404 401 402 403 395 377 368 362 351 348 338 345 344 345 343 339 335 334 327 321 318 324 307 319
263 261 260 262 265 268 274 282 289 301 314 347 388 400 403 410 422 439 448 447 439 440 434 422 419 420 421 424 430 431 437 446 459 449 433 420 408 392 380 374 367 360 359 360 361 365 367 361 352 339 328 329 315 325
273 279 286 296 305 317 367 397 409 419 427 439 444 442 434 430 424 412 406 401 398 397 399 399 397 402 406 410 419 437 465 468 451 426 409 409 425 449 447 435 419 406 399 398 424 436 435 331 366 379 355 342 338 305
394 396 410 417 424 434 446 450 442 429 415 401 393 393 396 400 405 411 415 424 432 436 435 431 425 416 413 406 405 413 441 434 431 433 455 474 474 434 402 402 405 411 417 417 423 425 423 428 434 334 371 367 356 348
444 443 429 415 406 400 398 402 407 415 418 427 431 439 441 441 446 445 445 441 436 434 428 425 426 432 432 433 424 411 441 441 430 452 463 456 442 432 421 416 417 449 440 429 424 426 422 415 412 414 418 426 485 393
Wind_Speed
62 62 53 59 58 56 59 57 57 59 60 61 61 60 62 62 61 61 66 63 61 62 67 71 70 73 75 76 77 78 80 85 88 89 88 84 81 92 89 92 100 105 75 80 109 114 116 117 114 28 124 23 103 128
60 61 59 59 65 60 62 60 63 52 64 65 66 67 67 68 66 66 65 64 60 59 67 73 73 74 73 81 80 85 93 94 92 95 95 98 94 90 107 105 101 109 114 120 120 85 124 125 127 131 132 135 68 140
70 38 68 64 64 63 67 67 61 62 72 70 69 69 69 70 71 69 71 68 68 71 73 75 78 81 85 92 95 95 86 82 87 95 104 102 107 94 24 112 115 116 107 29 112 36 47 114 130 84 139 54 143 142
65 66 61 69 63 64 72 68 71 73 73 72 74 77 73 75 75 75 76 76 79 81 75 80 84 89 87 64 84 97 98 92 99 105 106 103 19 114 111 112 65 103 29 115 116 87 103 136 137 113 133 133 134 123
64 72 73 82 71 73 74 74 74 83 73 77 85 78 80 79 81 83 83 84 86 84 81 86 90 91 98 86 92 91 96 110 116 37 92 111 82 118 108 117 106 117 128 124 109 115 119 133 135 140 132 139 134 144
86 71 90 73 82 80 80 72 91 78 79 96 78 80 86 82 82 81 84 96 87 95 98 96 92 92 93 96 100 105 109 109 101 103 118 119 125 120 126 120 124 136 125 121 122 129 131 134 131 147 58 140 153 135
86 91 87 96 72 82 93 94 93 94 97 95 75 70 74 98 103 87 92 88 91 90 92 97 100 101 106 112 114 114 117 118 118 118 51 6 108 118 130 130 134 137 141 36 134 102 135 138 57 136 137 151 154 151
63 90 75 73 62 68 63 89 63 84 69 78 91 80 83 85 96 95 94 100 105 98 103 98 108 112 116 115 105 107 106 82 59 116 116 118 116 133 133 143 143 145 145 145 134 132 136 144 143 154 155 153 151 87
49 57 67 71 76 79 105 85 78 78 88 96 89 96 107 99 94 94 101 105 107 118 100 112 99 92 118 115 120 121 124 123 126 121 117 121 116 56 131 131 132 137 148 145 145 150 152 149 151 148 146 143 110 98
85 108 119 74 89 83 91 92 87 100 110 88 103 100 102 105 129 128 111 127 104 109 116 19 138 116 121 119 127 114 126 136 134 141 140 138 27 140 146 9 151 150 100 148 148 137 93 93 95 93 90 88 88 87
81 105 98 87 117 93 100 134 129 105 121 109 115 107 105 125 123 128 132 122 118 144 139 148 143 149 118 111 124 146 146 143 141 133 145 145 108 147 145 116 109 125 125 83 79 79 79 79 78 76 84 103 90 76
133 135 136 114 135 115 119 129 135 132 137 102 130 137 136 129 129 139 146 153 30 147 145 147 147 134 142 94 82 109 91 74 87 67 54 45 31 77 55 66 100 83 95 96 97 102 99 102 104 100 71 77 92 93
110 105 133 110 138 144 118 150 117 144 150 149 146 150 134 148 88 87 77 81 107 108 83 95 104 117 75 49 46 54 51 54 51 51 53 52 53 54 59 62 61 61 62 64 83 67 72 79 85 91 86 84 58 58
141 156 155 150 129 148 129 65 90 102 60 70 65 117 125 64 66 71 71 72 77 111 111 91 80 89 81 81 83 81 82 82 81 77 83 85 85 83 85 65 64 61 64 66 67 68 67 66 65 45 49 54 56 66
110 87 69 66 75 67 60 62 83 109 87 96 63 87 61 66 72 78 80 78 79 85 84 74 78 81 80 80 78 81 82 79 80 78 68 70 76 78 79 78 79 75 65 66 65 64 63 63 53 62 52 53 51 46
83 59 50 49 68 57 50 69 67 64 57 72 62 58 63 69 78 71 72 64 65 65 64 66 67 30 68 69 73 46 49 58 61 78 64 57 57 45 42 40 73 76 38 43 43 45 46 46 47 48 51 47 43 38
67 49 66 62 50 48 51 52 55 51 57 57 61 59 58 62 62 65 64 64 64 64 65 65 64 63 60 52 52 53 50 43 41 46 32 37 43 44 44 40 38 40 42 36 41 44 44 42 45 47 41 41 36 33
55 48 49 50 48 48 48 49 51 50 56 60 58 58 57 58 63 65 66 66 66 66 66 65 63 65 65 53 52 55 54 53 52 29 41 44 45 44 40 38 60 56 36 38 38 39 38 41 42 37 37 32 30 28
44 47 48 48 46 48 49 52 53 51 57 55 55 57 55 58 65 65 66 67 64 65 65 65 64 62 61 60 56 52 51 54 52 43 40 42 40 43 41 41 40 37 40 37 38 37 40 38 34 31 31 29 27 26
42 45 45 46 47 50 47 50 53 54 54 55 56 53 52 58 64 66 64 63 64 64 65 66 66 64 62 62 62 58 56 54 52 49 48 47 48 41 40 38 37 37 52 53 37 35 36 35 32 31 30 28 25 25
42 45 43 46 48 50 48 51 57 54 52 52 53 51 53 58 65 66 67 69 69 71 69 68 67 66 65 62 60 61 58 58 57 54 49 48 48 47 43 45 47 46 49 48 46 38 36 33 29 29 30 29 29 24
42 44 46 46 45 45 54 58 54 53 51 49 50 52 54 57 63 67 68 71 72 72 73 72 71 70 68 66 63 62 63 60 58 57 54 50 48 48 46 45 43 43 42 41 43 45 35 34 30 29 27 26 28 26
46 47 45 47 49 47 48 51 53 55 50 48 53 55 57 60 64 68 68 72 75 77 78 76 74 72 71 71 70 68 66 64 61 58 57 55 51 49 48 47 45 44 40 38 37 38 42 35 33 30 27 25 25 28
50 46 51 48 45 48 48 52 54 53 53 56 56 57 61 65 67 69 73 75 77 78 77 77 78 78 77 78 75 71 68 67 65 63 60 56 56 54 52 49 47 45 42 41 40 38 36 39 37 34 31 27 26 28
56 53 48 47 48 49 50 52 57 60 59 61 63 64 66 70 72 74 77 79 79 79 80 80 82 85 83 78 72 69 69 68 67 66 64 61 57 55 55 53 50 47 44 42 41 40 39 35 34 36 30 29 26 28
51 49 51 51 52 55 56 58 61 63 64 65 68 72 75 77 78 79 80 81 82 84 87 87 85 81 75 71 69 69 68 67 67 67 66 65 63 59 57 57 56 50 45 43 41 41 42 40 35 34 35 30 29 27
54 56 54 54 57 59 61 63 66 70 73 75 77 80 82 82 82 85 88 91 92 91 88 83 78 74 71 69 67 67 67 69 70 70 69 68 65 61 59 58 58 58 55 50 45 42 41 42 41 38 35 32 30 27
59 61 62 64 65 66 69 72 75 78 80 83 85 87 89 93 96 98 98 93 87 82 79 76 73 71 70 69 69 69 71 72 73 73 72 69 66 64 63 62 61 59 58 57 55 52 46 44 43 42 39 35 31 29
65 68 70 72 75 78 79 82 84 86 90 93 96 100 102 101 92 87 84 81 79 78 76 76 75 74 73 72 71 72 71 71 70 68 68 70 69 67 67 66 64 63 62 62 59 56 54 52 49 46 43 42 36 33
69 72 74 77 81 85 88 91 93 97 100 97 88 83 82 81 79 75 72 70 70 68 67 68 68 66 65 64 64 63 62 62 62 65 68 69 68 68 69 69 68 66 65 64 63 62 58 54 51 48 47 45 41 39
79 81 85 89 92 96 89 83 81 78 76 73 71 69 69 67 67 69 69 68 68 67 66 64 62 60 59 57 56 56 56 55 56 58 58 58 56 54 58 63 65 66 66 66 61 58 51 48 50 49 46 46 45 41
80 81 79 77 75 74 71 68 67 67 68 69 70 70 70 70 70 69 69 68 66 65 64 63 62 61 59 57 55 54 51 51 50 49 47 46 47 50 54 54 53 52 52 51 49 47 46 44 44 45 47 46 45 43
66 66 67 68 68 69 69 69 69 67 66 65 64 64 64 64 63 63 62 62 61 60 58 57 56 55 54 53 53 52 48 47 46 44 44 44 44 44 44 45 45 43 43 44 44 43 43 42 41 40 39 38 35 44
Wind_Direction
243 252 245 247 254 260 257 258 262 268 269 271 272 264 265 267 271 273 268 277 277 283 278 273 283 289 287 287 282 280 282 282 283 285 285 287 288 284 285 284 284 284 289 286 285 287 291 291 301 292 296 297 298 299
251 250 254 250 263 256 257 259 262 263 265 263 266 266 268 273 272 273 275 277 276 278 274 277 286 281 279 275 285 286 280 279 282 283 284 283 288 285 288 291 286 295 286 287 286 291 289 291 293 291 292 293 301 296
255 254 253 256 256 262 260 261 255 254 267 269 272 273 273 279 280 273 275 270 271 269 277 278 277 274 274 274 275 279 282 282 279 279 280 279 281 295 324 283 282 283 289 305 286 291 293 296 299 298 294 303 293 293
259 255 257 255 264 264 265 265 265 269 268 269 271 273 271 275 269 270 269 270 271 273 274 278 277 272 281 274 282 275 274 274 275 276 277 280 311 279 281 284 287 283 284 289 297 286 295 292 292 297 296 293 300 303
260 260 262 264 262 265 265 265 266 271 270 272 275 274 275 274 273 277 273 273 278 270 272 278 272 279 273 282 287 280 273 274 278 298 279 279 289 287 294 282 288 302 285 288 294 290 299 285 287 293 301 301 297 296
260 263 263 267 269 270 272 266 274 268 277 277 274 279 283 274 275 284 284 288 283 287 290 289 272 273 277 275 274 295 294 280 291 286 279 278 282 289 288 282 283 285 305 299 294 287 290 299 305 291 296 294 297 297
265 269 272 267 272 275 274 274 275 274 278 280 278 276 285 280 287 284 266 267 284 281 276 287 267 267 270 273 276 273 274 273 283 285 294 321 288 291 284 285 282 284 286 304 296 296 291 304 305 292 297 299 298 299
268 265 267 271 271 270 271 274 275 281 267 278 273 259 264 283 265 269 276 283 284 274 267 275 293 273 268 271 282 290 284 291 280 286 290 280 289 296 288 283 282 285 297 293 289 292 294 298 299 298 296 297 298 300
265 263 271 265 266 272 279 261 275 262 260 262 265 268 282 283 267 270 267 276 282 289 276 271 281 288 292 268 275 279 288 287 276 281 289 293 281 294 296 291 285 284 296 297 297 297 296 297 293 293 295 296 295 296
263 272 271 258 270 273 259 263 257 280 287 266 276 269 268 264 290 291 268 293 281 276 286 296 299 285 295 274 276 285 295 280 284 297 296 295 302 284 292 326 291 291 290 293 294 296 293 291 291 292 292 294 296 298
272 274 281 276 280 261 271 282 282 274 286 272 286 263 278 292 290 289 289 278 271 296 293 296 291 295 294 289 277 292 291 292 291 289 289 288 289 284 284 285 286 287 288 291 293 293 292 291 292 294 295 296 298 299
277 276 280 274 281 283 280 284 286 286 287 273 287 286 287 287 288 290 291 289 274 286 287 286 288 291 291 288 287 286 286 289 292 296 297 294 305 287 291 288 291 292 294 293 291 291 294 293 293 294 299 297 296 296
283 282 282 282 284 280 283 284 283 282 284 280 281 281 284 286 284 281 286 285 286 288 284 284 283 286 291 296 298 297 300 301 303 303 298 293 291 290 292 294 297 299 298 294 292 298 296 295 293 293 295 297 306 310
278 273 275 276 282 277 278 280 281 283 281 280 281 283 284 284 284 284 285 285 286 287 288 286 288 287 288 289 289 290 290 289 290 289 291 291 293 295 294 296 299 296 296 297 297 297 298 299 300 311 310 308 310 302
276 281 276 277 276 274 278 278 279 280 281 283 281 283 283 282 282 283 284 286 288 290 290 293 291 291 291 291 293 291 290 292 292 293 294 293 293 292 295 297 299 301 298 298 298 298 298 298 303 299 310 309 313 315
273 281 277 274 274 274 276 276 278 279 279 279 282 284 285 286 286 287 288 293 295 296 297 296 295 300 294 295 293 303 298 296 294 293 294 297 299 306 308 306 300 303 295 296 298 301 305 308 311 309 308 311 313 313
285 279 277 277 273 273 274 277 279 281 283 285 286 289 292 291 294 293 295 296 299 299 299 299 301 303 303 306 304 303 307 305 301 299 310 307 304 306 307 312 307 302 303 295 299 306 309 312 308 307 312 320 312 313
282 277 275 274 272 273 275 276 278 280 280 282 288 292 294 294 293 294 297 300 301 300 299 301 303 302 304 309 310 309 309 307 308 302 302 307 311 317 317 323 305 308 317 316 312 309 306 305 308 316 324 314 311 310
277 275 274 274 275 276 276 277 281 282 281 286 289 291 294 294 295 297 300 301 302 300 299 300 301 303 303 307 313 312 311 309 309 306 307 309 309 313 318 321 319 317 314 315 312 309 307 310 315 318 314 311 307 305
276 274 272 274 274 275 277 277 279 280 282 288 289 290 291 291 293 295 298 301 301 303 303 303 302 304 304 303 306 310 311 310 310 310 309 307 307 309 312 313 314 313 310 313 308 310 311 315 318 317 315 311 305 303
278 275 274 276 279 280 279 278 277 281 283 286 287 289 290 293 294 298 300 302 304 305 306 305 305 304 303 303 302 307 307 306 308 309 308 306 306 306 307 305 305 306 308 310 313 310 312 316 315 316 312 311 308 309
277 278 279 282 283 279 279 280 280 280 282 283 283 287 288 290 293 296 299 299 301 303 303 303 303 303 303 303 301 300 304 304 303 303 305 305 303 302 301 301 303 303 305 307 307 311 314 314 315 314 312 308 305 305
277 280 283 283 285 287 283 281 282 283 285 286 286 288 289 292 293 295 298 298 300 301 302 303 303 302 301 302 302 303 301 300 300 300 298 299 299 299 299 299 300 301 304 306 308 306 306 318 316 312 310 305 301 301
282 285 288 288 284 284 283 282 285 288 288 287 289 291 291 292 294 297 297 298 298 299 299 300 299 298 299 300 300 298 296 295 296 296 297 295 294 295 295 296 297 299 301 302 303 307 311 303 308 318 310 305 299 295
286 288 286 286 283 280 283 287 287 288 292 292 291 291 292 292 293 296 298 297 297 297 297 298 298 298 298 297 294 291 291 291 291 291 292 293 291 289 289 291 293 294 296 297 299 301 302 306 310 305 315 306 296 290
286 287 287 286 287 288 288 290 290 290 289 290 293 293 293 295 296 296 294 294 294 295 296 296 296 296 293 291 289 288 287 286 286 286 288 289 289 287 285 285 287 288 289 291 293 295 298 299 299 303 299 304 307 291
288 288 288 288 289 291 291 290 291 292 292 292 293 293 293 294 293 294 295 296 296 297 296 295 293 291 289 288 286 284 283 283 283 284 285 285 285 284 281 280 281 282 284 286 287 288 290 292 294 295 295 290 297 298
290 293 294 293 293 292 292 292 293 293 294 294 294 293 294 296 297 297 296 295 294 293 291 290 288 286 284 283 281 279 278 277 278 278 279 279 279 281 280 279 278 278 279 280 282 284 285 286 287 288 289 290 289 290
293 293 294 295 295 296 296 294 294 294 294 295 296 297 296 295 294 294 294 294 293 292 290 290 289 287 285 283 282 281 281 281 280 278 276 275 275 275 275 275 277 276 276 276 276 275 276 277 278 279 280 282 284 286
290 290 291 290 290 290 291 293 294 294 294 293 292 293 293 293 292 291 291 291 291 291 291 290 289 289 288 287 286 284 283 282 280 277 275 274 273 272 272 272 273 273 273 274 275 276 275 272 270 270 271 273 276 277
289 288 290 291 291 291 291 291 292 293 292 291 291 292 292 292 292 292 292 293 293 293 292 292 291 291 290 290 289 289 288 286 282 279 278 278 278 279 277 275 274 274 274 275 277 278 277 270 270 267 264 264 266 271
290 290 290 290 290 290 290 290 291 292 292 293 293 292 292 292 292 292 292 291 291 291 291 291 291 290 289 288 288 288 288 287 286 285 286 285 282 276 275 276 277 277 278 278 278 277 276 275 273 264 263 260 259 259
287 288 289 290 291 291 291 291 291 291 291 292 292 291 290 289 289 289 289 290 291 291 292 292 290 289 288 288 288 289 289 288 287 288 288 286 284 281 278 276 276 279 277 276 276 275 272 270 269 267 266 263 263 255